| time (UTC) | temp F | wind direction | speed MPH | gust MPH | rain 1hr in | rain 24hr in | rain mn in | humidity % | barometer mb |
| 20260905091621 | 53 | 266 | 6.0 | 14.0 | 0.00 | 0.02 | 0.02 | 88 | 1012.7 |
| 20260905091040 | 53 | 293 | 5.0 | 14.0 | 0.00 | 0.02 | 0.02 | 89 | 1012.4 |
| 20260905090539 | 53 | 271 | 4.0 | 10.0 | 0.00 | 0.02 | 0.02 | 89 | 1012.2 |
| 20260905090118 | 53 | 248 | 3.0 | 11.0 | 0.00 | 0.02 | 0.02 | 89 | 1012.3 |
| 20260905085540 | 53 | 289 | 6.0 | 13.0 | 0.00 | 0.02 | 0.02 | 89 | 1012.3 |
| 20260905085039 | 53 | 257 | 7.0 | 19.0 | 0.00 | 0.02 | 0.02 | 89 | 1012.5 |
| 20260905084605 | 53 | 276 | 11.0 | 21.0 | 0.00 | 0.02 | 0.02 | 89 | 1012.1 |
| 20260905084040 | 53 | 309 | 13.0 | 24.0 | 0.00 | 0.02 | 0.02 | 89 | 1012.5 |
| 20260905083540 | 53 | 268 | 13.0 | 24.0 | 0.00 | 0.02 | 0.02 | 90 | 1012.7 |
| 20260905083050 | 53 | 297 | 13.0 | 24.0 | 0.00 | 0.02 | 0.02 | 90 | 1013.0 |
| 20260905082540 | 53 | 270 | 11.0 | 19.0 | 0.00 | 0.02 | 0.02 | 90 | 1013.2 |
| 20260905082040 | 54 | 298 | 12.0 | 19.0 | 0.00 | 0.02 | 0.02 | 90 | 1013.6 |
| 20260905081546 | 54 | 275 | 12.0 | 18.0 | 0.00 | 0.02 | 0.02 | 90 | 1013.9 |
| 20260905081039 | 53 | 288 | 9.0 | 17.0 | 0.00 | 0.02 | 0.02 | 91 | 1013.9 |
| 20260905080543 | 54 | 263 | 11.0 | 18.0 | 0.00 | 0.02 | 0.02 | 90 | 1014.0 |
| 20260905080101 | 54 | 283 | 11.0 | 18.0 | 0.00 | 0.02 | 0.02 | 90 | 1013.9 |
| 20260905075540 | 54 | 279 | 11.0 | 18.0 | 0.00 | 0.02 | 0.02 | 89 | 1013.9 |
| 20260905075040 | 54 | 267 | 10.0 | 18.0 | 0.00 | 0.02 | 0.02 | 87 | 1014.0 |
| 20260905074551 | 54 | 272 | 13.0 | 20.0 | 0.00 | 0.02 | 0.02 | 86 | 1013.8 |
| 20260905074040 | 54 | 301 | 13.0 | 20.0 | 0.00 | 0.02 | 0.02 | 86 | 1013.6 |
| 20260905073552 | 54 | 260 | 12.0 | 20.0 | 0.00 | 0.02 | 0.02 | 86 | 1013.5 |
| 20260905073055 | 54 | 269 | 13.0 | 20.0 | 0.00 | 0.02 | 0.02 | 85 | 1013.4 |
| 20260905072540 | 55 | 288 | 12.0 | 18.0 | 0.00 | 0.02 | 0.02 | 84 | 1013.2 |
| 20260905072041 | 55 | 264 | 9.0 | 25.0 | 0.00 | 0.02 | 0.02 | 83 | 1013.3 |
| 20260905071558 | 55 | 295 | 12.0 | 25.0 | 0.00 | 0.02 | 0.02 | 83 | 1013.3 |
| 20260905071043 | 55 | 308 | 14.0 | 23.0 | 0.00 | 0.02 | 0.02 | 83 | 1013.1 |
| 20260905070539 | 54 | 273 | 13.0 | 23.0 | 0.00 | 0.02 | 0.02 | 84 | 1013.0 |
| 20260905070101 | 55 | 248 | 12.0 | 27.0 | 0.00 | 0.02 | 0.02 | 83 | 1012.9 |
| 20260905065541 | 55 | 232 | 12.0 | 27.0 | 0.00 | 0.02 | 0.02 | 82 | 1012.8 |
| 20260905065039 | 55 | 311 | 15.0 | 25.0 | 0.00 | 0.02 | 0.02 | 81 | 1012.5 |
| 20260905064550 | 55 | 300 | 15.0 | 25.0 | 0.00 | 0.02 | 0.02 | 81 | 1012.4 |
| 20260905064038 | 55 | 293 | 17.0 | 25.0 | 0.00 | 0.02 | 0.02 | 80 | 1012.4 |
| 20260905063539 | 55 | 319 | 15.0 | 30.0 | 0.00 | 0.02 | 0.02 | 81 | 1012.3 |
| 20260905063048 | 55 | 292 | 13.0 | 30.0 | 0.00 | 0.02 | 0.02 | 82 | 1012.5 |
| 20260905062538 | 55 | 284 | 16.0 | 30.0 | 0.00 | 0.02 | 0.02 | 82 | 1012.5 |
| 20260905062039 | 54 | 281 | 12.0 | 26.0 | 0.00 | 0.02 | 0.02 | 83 | 1012.5 |
| 20260905061619 | 55 | 238 | 12.0 | 26.0 | 0.00 | 0.02 | 0.02 | 83 | 1012.6 |
| 20260905061039 | 55 | 280 | 14.0 | 26.0 | 0.00 | 0.02 | 0.02 | 83 | 1012.4 |
| 20260905060539 | 55 | 245 | 15.0 | 27.0 | 0.00 | 0.02 | 0.02 | 83 | 1012.4 |
| 20260905060112 | 55 | 260 | 14.0 | 27.0 | 0.00 | 0.02 | 0.02 | 83 | 1012.3 |
| 20260905055539 | 55 | 289 | 12.0 | 27.0 | 0.00 | 0.02 | 0.02 | 83 | 1012.4 |
| 20260905055039 | 55 | 275 | 13.0 | 28.0 | 0.00 | 0.02 | 0.02 | 83 | 1012.4 |
| 20260905054555 | 55 | 306 | 15.0 | 28.0 | 0.00 | 0.02 | 0.02 | 84 | 1012.4 |
| 20260905054039 | 55 | 264 | 16.0 | 32.0 | 0.00 | 0.02 | 0.02 | 84 | 1012.5 |
| 20260905053539 | 55 | 277 | 15.0 | 32.0 | 0.00 | 0.02 | 0.02 | 84 | 1012.3 |
| 20260905053048 | 55 | 288 | 14.0 | 25.0 | 0.00 | 0.02 | 0.02 | 84 | 1012.2 |
| 20260905052543 | 55 | 313 | 14.0 | 26.0 | 0.00 | 0.02 | 0.02 | 83 | 1012.2 |
| 20260905052040 | 55 | 240 | 12.0 | 26.0 | 0.00 | 0.02 | 0.02 | 83 | 1012.3 |
| 20260905051548 | 55 | 269 | 14.0 | 26.0 | 0.00 | 0.02 | 0.02 | 82 | 1012.3 |
| 20260905051038 | 55 | 295 | 14.0 | 25.0 | 0.00 | 0.02 | 0.02 | 82 | 1012.3 |
| 20260905050539 | 55 | 255 | 16.0 | 25.0 | 0.00 | 0.02 | 0.02 | 81 | 1012.4 |
| 20260905050059 | 56 | 317 | 12.0 | 20.0 | 0.00 | 0.02 | 0.02 | 80 | 1012.4 |
| 20260905045538 | 56 | 253 | 12.0 | 24.0 | 0.00 | 0.02 | 0.02 | 79 | 1012.4 |
| 20260905045038 | 56 | 277 | 11.0 | 24.0 | 0.00 | 0.02 | 0.02 | 78 | 1012.4 |
| 20260905044556 | 56 | 287 | 9.0 | 24.0 | 0.00 | 0.02 | 0.02 | 78 | 1012.5 |
| 20260905044039 | 56 | 270 | 13.0 | 27.0 | 0.00 | 0.02 | 0.02 | 77 | 1012.4 |
| 20260905043539 | 57 | 262 | 14.0 | 29.0 | 0.00 | 0.02 | 0.02 | 78 | 1012.3 |
| 20260905043049 | 57 | 306 | 13.0 | 32.0 | 0.00 | 0.02 | 0.02 | 78 | 1012.2 |
| 20260905042539 | 57 | 273 | 17.0 | 32.0 | 0.00 | 0.02 | 0.02 | 77 | 1012.3 |
| 20260905042039 | 57 | 277 | 16.0 | 27.0 | 0.00 | 0.02 | 0.02 | 78 | 1012.3 |
| 20260905041603 | 57 | 313 | 14.0 | 25.0 | 0.00 | 0.02 | 0.02 | 79 | 1012.4 |
| 20260905041039 | 58 | 318 | 12.0 | 29.0 | 0.00 | 0.02 | 0.02 | 80 | 1012.7 |
| 20260905040540 | 58 | 289 | 12.0 | 29.0 | 0.00 | 0.02 | 0.02 | 81 | 1013.0 |
| 20260905040057 | 57 | 307 | 13.0 | 29.0 | 0.00 | 0.02 | 0.02 | 81 | 1012.9 |
| 20260905035539 | 56 | 295 | 12.0 | 26.0 | 0.00 | 0.02 | 0.02 | 82 | 1013.0 |
| 20260905035039 | 56 | 263 | 13.0 | 26.0 | 0.00 | 0.02 | 0.02 | 82 | 1013.0 |
| 20260905034602 | 56 | 296 | 11.0 | 20.0 | 0.00 | 0.02 | 0.02 | 82 | 1012.9 |
| 20260905034043 | 56 | 290 | 10.0 | 20.0 | 0.00 | 0.02 | 0.02 | 83 | 1012.9 |
| 20260905033620 | 56 | 290 | 11.0 | 24.0 | 0.00 | 0.02 | 0.02 | 82 | 1012.9 |
| 20260905033047 | 56 | 271 | 14.0 | 24.0 | 0.00 | 0.02 | 0.02 | 82 | 1012.9 |
| 20260905032541 | 56 | 263 | 12.0 | 24.0 | 0.00 | 0.02 | 0.02 | 83 | 1013.0 |
| 20260905032038 | 57 | 288 | 12.0 | 24.0 | 0.00 | 0.02 | 0.02 | 82 | 1013.1 |
| 20260905031559 | 57 | 270 | 10.0 | 22.0 | 0.01 | 0.02 | 0.02 | 83 | 1013.1 |
| 20260905031039 | 57 | 250 | 13.0 | 21.0 | 0.01 | 0.02 | 0.02 | 84 | 1013.2 |
| 20260905030538 | 56 | 258 | 11.0 | 20.0 | 0.01 | 0.02 | 0.02 | 86 | 1013.2 |
| 20260905030054 | 56 | 300 | 10.0 | 19.0 | 0.01 | 0.02 | 0.02 | 88 | 1013.3 |
| 20260905025538 | 55 | 247 | 8.0 | 16.0 | 0.02 | 0.02 | 0.02 | 87 | 1013.4 |
| 20260905025040 | 55 | 245 | 10.0 | 16.0 | 0.02 | 0.02 | 0.02 | 88 | 1013.5 |
| 20260905024600 | 55 | 244 | 9.0 | 17.0 | 0.02 | 0.02 | 0.02 | 89 | 1013.6 |
| 20260905024039 | 55 | 236 | 11.0 | 17.0 | 0.02 | 0.02 | 0.02 | 90 | 1013.7 |
| 20260905023539 | 54 | 234 | 11.0 | 18.0 | 0.02 | 0.02 | 0.02 | 91 | 1013.8 |
| 20260905023104 | 54 | 250 | 9.0 | 18.0 | 0.02 | 0.02 | 0.02 | 90 | 1013.8 |
| 20260905022538 | 54 | 260 | 12.0 | 27.0 | 0.02 | 0.02 | 0.02 | 89 | 1013.7 |
| 20260905022039 | 56 | 252 | 14.0 | 32.0 | 0.02 | 0.02 | 0.02 | 85 | 1013.7 |
| 20260905021557 | 57 | 304 | 15.0 | 32.0 | 0.00 | 0.00 | 0.00 | 81 | 1013.5 |
| 20260905021038 | 57 | 251 | 15.0 | 31.0 | 0.00 | 0.00 | 0.00 | 81 | 1013.5 |
| 20260905020542 | 57 | 273 | 12.0 | 29.0 | 0.00 | 0.00 | 0.00 | 86 | 1013.3 |
| 20260905020055 | 56 | 261 | 14.0 | 29.0 | 0.00 | 0.00 | 0.00 | 83 | 1013.6 |
| 20260905015539 | 57 | 267 | 15.0 | 29.0 | 0.00 | 0.00 | 0.00 | 80 | 1013.8 |
| 20260905015042 | 58 | 243 | 10.0 | 29.0 | 0.00 | 0.00 | 0.00 | 78 | 1013.8 |
| 20260905014554 | 58 | 252 | 14.0 | 29.0 | 0.00 | 0.00 | 0.00 | 76 | 1013.7 |
| 20260905014039 | 58 | 239 | 12.0 | 27.0 | 0.00 | 0.00 | 0.00 | 79 | 1013.8 |
| 20260905013539 | 59 | 273 | 11.0 | 27.0 | 0.00 | 0.00 | 0.00 | 78 | 1013.8 |
| 20260905013050 | 59 | 271 | 12.0 | 24.0 | 0.00 | 0.00 | 0.00 | 79 | 1013.9 |
| 20260905012540 | 58 | 281 | 15.0 | 24.0 | 0.00 | 0.00 | 0.00 | 78 | 1014.0 |
| 20260905012041 | 59 | 231 | 11.0 | 20.0 | 0.00 | 0.00 | 0.00 | 78 | 1013.9 |
| 20260905011549 | 58 | 265 | 12.0 | 24.0 | 0.00 | 0.00 | 0.00 | 79 | 1014.0 |
| 20260905011039 | 59 | 298 | 12.0 | 24.0 | 0.00 | 0.00 | 0.00 | 76 | 1014.1 |
| 20260905010539 | 59 | 292 | 12.0 | 22.0 | 0.00 | 0.00 | 0.00 | 78 | 1014.1 |
| 20260905010057 | 59 | 240 | 12.0 | 27.0 | 0.00 | 0.00 | 0.00 | 77 | 1014.0 |
| 20260905005539 | 59 | 279 | 12.0 | 27.0 | 0.00 | 0.00 | 0.00 | 78 | 1014.1 |
| 20260905005039 | 59 | 285 | 14.0 | 27.0 | 0.00 | 0.00 | 0.00 | 76 | 1014.2 |
| 20260905004557 | 59 | 319 | 12.0 | 22.0 | 0.00 | 0.00 | 0.00 | 78 | 1014.5 |
| 20260905004039 | 58 | 317 | 12.0 | 22.0 | 0.00 | 0.00 | 0.00 | 77 | 1014.7 |
| 20260905003539 | 58 | 317 | 12.0 | 22.0 | 0.00 | 0.00 | 0.00 | 76 | 1014.7 |
| 20260905003051 | 58 | 292 | 13.0 | 22.0 | 0.00 | 0.00 | 0.00 | 77 | 1014.7 |
| 20260905002539 | 58 | 259 | 11.0 | 24.0 | 0.00 | 0.00 | 0.00 | 78 | 1014.7 |
| 20260905002039 | 58 | 314 | 10.0 | 24.0 | 0.00 | 0.00 | 0.00 | 79 | 1014.7 |
| 20260905001606 | 57 | 246 | 8.0 | 20.0 | 0.00 | 0.00 | 0.00 | 81 | 1015.0 |
| 20260905001038 | 57 | 291 | 9.0 | 20.0 | 0.00 | 0.00 | 0.00 | 79 | 1015.0 |
| 20260905000539 | 57 | 236 | 10.0 | 20.0 | 0.00 | 0.00 | 0.00 | 79 | 1015.2 |
| 20260905000112 | 57 | 235 | 10.0 | 17.0 | 0.00 | 0.00 | 0.00 | 79 | 1015.3 |
| 20260904235541 | 57 | 294 | 8.0 | 16.0 | 0.00 | 0.00 | 0.00 | 80 | 1015.4 |
| 20260904235038 | 57 | 271 | 10.0 | 17.0 | 0.00 | 0.00 | 0.00 | 78 | 1015.3 |
| 20260904234557 | 57 | 272 | 11.0 | 19.0 | 0.00 | 0.00 | 0.00 | 76 | 1015.3 |
| 20260904234039 | 57 | 257 | 10.0 | 21.0 | 0.00 | 0.00 | 0.00 | 79 | 1015.3 |
| 20260904233539 | 57 | 254 | 11.0 | 21.0 | 0.00 | 0.00 | 0.00 | 77 | 1015.3 |
| 20260904233109 | 57 | 265 | 12.0 | 21.0 | 0.00 | 0.00 | 0.00 | 75 | 1015.3 |
| 20260904232538 | 57 | 263 | 11.0 | 19.0 | 0.00 | 0.00 | 0.00 | 78 | 1015.2 |
| 20260904232040 | 57 | 274 | 9.0 | 16.0 | 0.00 | 0.00 | 0.00 | 78 | 1015.3 |
| 20260904231555 | 57 | 255 | 8.0 | 15.0 | 0.00 | 0.00 | 0.00 | 79 | 1015.3 |
| 20260904231039 | 57 | 232 | 9.0 | 16.0 | 0.00 | 0.00 | 0.00 | 78 | 1015.3 |
| 20260904230539 | 57 | 252 | 9.0 | 16.0 | 0.00 | 0.00 | 0.00 | 78 | 1015.3 |
| 20260904230105 | 57 | 267 | 8.0 | 18.0 | 0.00 | 0.00 | 0.00 | 80 | 1015.3 |
| 20260904225539 | 57 | 244 | 8.0 | 18.0 | 0.00 | 0.03 | 0.00 | 79 | 1015.4 |
| 20260904225038 | 58 | 270 | 8.0 | 18.0 | 0.00 | 0.03 | 0.00 | 79 | 1015.2 |
| 20260904224601 | 58 | 243 | 9.0 | 18.0 | 0.00 | 0.03 | 0.00 | 78 | 1015.3 |
| 20260904224039 | 58 | 250 | 11.0 | 18.0 | 0.00 | 0.03 | 0.00 | 79 | 1015.4 |
| 20260904223539 | 57 | 273 | 11.0 | 18.0 | 0.00 | 0.03 | 0.00 | 79 | 1015.3 |
| 20260904223114 | 57 | 34 | 9.0 | 18.0 | 0.00 | 0.03 | 0.00 | 79 | 1015.2 |
| 20260904222539 | 57 | 252 | 10.0 | 18.0 | 0.00 | 0.03 | 0.00 | 77 | 1015.1 |
| 20260904222039 | 58 | 284 | 10.0 | 17.0 | 0.00 | 0.03 | 0.00 | 79 | 1015.1 |
| 20260904221548 | 57 | 305 | 10.0 | 17.0 | 0.00 | 0.03 | 0.00 | 78 | 1015.1 |
| 20260904221039 | 58 | 247 | 7.0 | 17.0 | 0.00 | 0.03 | 0.00 | 79 | 1015.1 |
| 20260904220539 | 57 | 244 | 9.0 | 19.0 | 0.00 | 0.03 | 0.00 | 77 | 1014.9 |
| 20260904220058 | 57 | 276 | 12.0 | 19.0 | 0.00 | 0.03 | 0.00 | 75 | 1015.0 |
| 20260904215539 | 57 | 250 | 10.0 | 19.0 | 0.00 | 0.03 | 0.00 | 75 | 1015.0 |
| 20260904215041 | 57 | 237 | 12.0 | 19.0 | 0.00 | 0.03 | 0.00 | 76 | 1014.8 |
| 20260904214555 | 57 | 293 | 11.0 | 19.0 | 0.00 | 0.03 | 0.00 | 75 | 1014.8 |
| 20260904214039 | 57 | 285 | 12.0 | 20.0 | 0.00 | 0.03 | 0.00 | 75 | 1014.7 |
| 20260904213539 | 57 | 268 | 12.0 | 20.0 | 0.00 | 0.03 | 0.00 | 75 | 1014.7 |
| 20260904213101 | 57 | 275 | 12.0 | 17.0 | 0.00 | 0.03 | 0.00 | 77 | 1014.7 |
| 20260904212540 | 57 | 296 | 12.0 | 19.0 | 0.00 | 0.03 | 0.00 | 77 | 1014.6 |
| 20260904212039 | 57 | 275 | 9.0 | 19.0 | 0.00 | 0.03 | 0.00 | 77 | 1014.6 |
| 20260904211550 | 57 | 286 | 9.0 | 17.0 | 0.00 | 0.03 | 0.00 | 78 | 1014.9 |
| 20260904211037 | 57 | 298 | 8.0 | 16.0 | 0.00 | 0.03 | 0.00 | 79 | 1014.9 |
| 20260904210539 | 57 | 306 | 8.0 | 14.0 | 0.00 | 0.03 | 0.00 | 79 | 1014.9 |
| 20260904210105 | 57 | 273 | 5.0 | 14.0 | 0.00 | 0.03 | 0.00 | 79 | 1015.0 |
| 20260904205538 | 56 | 304 | 8.0 | 14.0 | 0.00 | 0.04 | 0.00 | 80 | 1015.0 |
| 20260904205038 | 56 | 271 | 8.0 | 12.0 | 0.00 | 0.04 | 0.00 | 79 | 1015.0 |
| 20260904204601 | 56 | 281 | 7.0 | 11.0 | 0.00 | 0.04 | 0.00 | 81 | 1015.0 |
| 20260904204043 | 56 | 293 | 7.0 | 16.0 | 0.00 | 0.04 | 0.00 | 80 | 1014.9 |
| 20260904203539 | 55 | 254 | 6.0 | 16.0 | 0.00 | 0.04 | 0.00 | 82 | 1014.9 |
| 20260904203101 | 55 | 293 | 8.0 | 16.0 | 0.00 | 0.04 | 0.00 | 83 | 1014.9 |
| 20260904202536 | 54 | 252 | 1.0 | 3.0 | 0.00 | 0.04 | 0.00 | 84 | 1014.8 |
| 20260904202038 | 54 | 36 | 0.0 | 4.0 | 0.00 | 0.04 | 0.00 | 83 | 1014.8 |
| 20260904201548 | 54 | 178 | 0.0 | 7.0 | 0.00 | 0.04 | 0.00 | 83 | 1014.7 |
| 20260904201036 | 54 | 44 | 1.0 | 7.0 | 0.00 | 0.04 | 0.00 | 83 | 1014.6 |
| 20260904200538 | 54 | 321 | 3.0 | 7.0 | 0.00 | 0.04 | 0.00 | 83 | 1014.4 |
| 20260904200057 | 54 | 273 | 3.0 | 7.0 | 0.00 | 0.04 | 0.00 | 84 | 1014.5 |
| 20260904195537 | 54 | 267 | 1.0 | 4.0 | 0.00 | 0.04 | 0.00 | 85 | 1014.5 |
| 20260904195039 | 53 | 265 | 0.0 | 9.0 | 0.00 | 0.04 | 0.00 | 85 | 1014.4 |
| 20260904194555 | 53 | 271 | 3.0 | 10.0 | 0.00 | 0.04 | 0.00 | 85 | 1014.3 |
| 20260904194039 | 52 | 285 | 6.0 | 13.0 | 0.00 | 0.04 | 0.00 | 85 | 1014.3 |
| 20260904193541 | 52 | 284 | 8.0 | 15.0 | 0.00 | 0.04 | 0.00 | 85 | 1014.2 |
| 20260904193103 | 52 | 296 | 9.0 | 15.0 | 0.00 | 0.04 | 0.00 | 85 | 1014.1 |
| 20260904192536 | 51 | 313 | 10.0 | 14.0 | 0.00 | 0.04 | 0.00 | 85 | 1013.9 |
| 20260904192041 | 51 | 278 | 7.0 | 13.0 | 0.00 | 0.04 | 0.00 | 85 | 1013.8 |
| 20260904191600 | 51 | 276 | 9.0 | 13.0 | 0.00 | 0.04 | 0.00 | 85 | 1013.7 |
| 20260904191037 | 51 | 311 | 8.0 | 13.0 | 0.00 | 0.04 | 0.00 | 85 | 1013.7 |
| 20260904190540 | 51 | 292 | 7.0 | 10.0 | 0.00 | 0.04 | 0.00 | 85 | 1013.7 |
| 20260904190101 | 51 | 279 | 6.0 | 10.0 | 0.00 | 0.04 | 0.00 | 85 | 1013.8 |
| 20260904185540 | 51 | 261 | 5.0 | 10.0 | 0.00 | 0.04 | 0.00 | 85 | 1013.8 |
| 20260904185041 | 51 | 294 | 4.0 | 10.0 | 0.00 | 0.04 | 0.00 | 85 | 1013.9 |
| 20260904184554 | 51 | 269 | 4.0 | 10.0 | 0.00 | 0.04 | 0.00 | 85 | 1013.8 |
| 20260904184039 | 51 | 290 | 5.0 | 10.0 | 0.00 | 0.04 | 0.00 | 86 | 1013.8 |
| 20260904183539 | 51 | 269 | 4.0 | 9.0 | 0.00 | 0.04 | 0.00 | 86 | 1013.7 |
| 20260904183101 | 51 | 264 | 4.0 | 9.0 | 0.00 | 0.04 | 0.00 | 86 | 1013.7 |
| 20260904182538 | 51 | 267 | 4.0 | 9.0 | 0.00 | 0.04 | 0.00 | 86 | 1013.6 |
| 20260904182039 | 51 | 266 | 3.0 | 7.0 | 0.00 | 0.04 | 0.00 | 85 | 1013.5 |
| 20260904181557 | 51 | 275 | 3.0 | 10.0 | 0.00 | 0.04 | 0.00 | 85 | 1013.5 |
| 20260904181039 | 51 | 271 | 3.0 | 10.0 | 0.00 | 0.04 | 0.00 | 85 | 1013.6 |
| 20260904180539 | 51 | 290 | 5.0 | 10.0 | 0.00 | 0.04 | 0.00 | 85 | 1013.3 |
| 20260904180103 | 51 | 271 | 3.0 | 11.0 | 0.00 | 0.04 | 0.00 | 85 | 1013.2 |
| 20260904175539 | 51 | 243 | 4.0 | 12.0 | 0.00 | 0.04 | 0.00 | 85 | 1013.1 |
| 20260904175040 | 51 | 269 | 5.0 | 12.0 | 0.00 | 0.04 | 0.00 | 85 | 1013.0 |
| 20260904174557 | 51 | 277 | 4.0 | 11.0 | 0.00 | 0.04 | 0.00 | 84 | 1013.0 |
| 20260904174040 | 51 | 264 | 5.0 | 11.0 | 0.00 | 0.04 | 0.00 | 84 | 1012.9 |
| 20260904173539 | 52 | 277 | 3.0 | 9.0 | 0.00 | 0.04 | 0.00 | 84 | 1012.9 |
| 20260904173056 | 52 | 302 | 4.0 | 9.0 | 0.00 | 0.04 | 0.00 | 84 | 1012.9 |
| 20260904172540 | 52 | 311 | 4.0 | 11.0 | 0.00 | 0.04 | 0.00 | 84 | 1012.8 |
| 20260904172039 | 52 | 268 | 6.0 | 12.0 | 0.00 | 0.04 | 0.00 | 84 | 1012.8 |
| 20260904171558 | 52 | 300 | 8.0 | 12.0 | 0.00 | 0.04 | 0.00 | 84 | 1012.6 |
| 20260904171040 | 52 | 290 | 6.0 | 12.0 | 0.00 | 0.04 | 0.00 | 84 | 1012.6 |
| 20260904170538 | 52 | 253 | 4.0 | 9.0 | 0.00 | 0.04 | 0.00 | 84 | 1012.6 |
| 20260904170059 | 52 | 263 | 4.0 | 11.0 | 0.00 | 0.04 | 0.00 | 84 | 1012.6 |
| 20260904165541 | 52 | 261 | 5.0 | 11.0 | 0.00 | 0.04 | 0.00 | 84 | 1012.6 |
| 20260904165039 | 52 | 261 | 4.0 | 11.0 | 0.00 | 0.04 | 0.00 | 84 | 1012.5 |
| 20260904164556 | 52 | 278 | 6.0 | 15.0 | 0.00 | 0.04 | 0.00 | 83 | 1012.5 |
| 20260904164039 | 52 | 255 | 7.0 | 15.0 | 0.00 | 0.04 | 0.00 | 83 | 1012.4 |
| 20260904163539 | 52 | 267 | 4.0 | 12.0 | 0.00 | 0.04 | 0.00 | 83 | 1012.3 |
| 20260904163052 | 52 | 302 | 5.0 | 18.0 | 0.00 | 0.04 | 0.00 | 82 | 1012.1 |
| 20260904162539 | 52 | 261 | 7.0 | 18.0 | 0.00 | 0.04 | 0.00 | 82 | 1012.1 |
| 20260904162042 | 52 | 237 | 6.0 | 14.0 | 0.00 | 0.04 | 0.00 | 82 | 1012.0 |
| 20260904161610 | 52 | 239 | 6.0 | 12.0 | 0.00 | 0.04 | 0.00 | 82 | 1011.9 |
| 20260904161039 | 52 | 248 | 4.0 | 14.0 | 0.00 | 0.04 | 0.00 | 82 | 1011.9 |
| 20260904160539 | 53 | 240 | 5.0 | 14.0 | 0.00 | 0.04 | 0.00 | 82 | 1011.8 |
| 20260904155539 | 53 | 261 | 8.0 | 16.0 | 0.00 | 0.04 | 0.00 | 81 | 1011.6 |
| 20260904155036 | 53 | 237 | 7.0 | 18.0 | 0.00 | 0.04 | 0.00 | 81 | 1011.5 |
| 20260904154555 | 53 | 294 | 8.0 | 18.0 | 0.00 | 0.04 | 0.00 | 81 | 1011.5 |
| 20260904154039 | 53 | 277 | 10.0 | 21.0 | 0.00 | 0.04 | 0.00 | 81 | 1011.4 |
| 20260904153539 | 53 | 244 | 7.0 | 21.0 | 0.00 | 0.04 | 0.00 | 81 | 1011.2 |
| 20260904153101 | 53 | 246 | 8.0 | 18.0 | 0.00 | 0.04 | 0.00 | 82 | 1011.3 |
| 20260904152538 | 53 | 263 | 7.0 | 14.0 | 0.00 | 0.04 | 0.00 | 83 | 1011.2 |
| 20260904152038 | 53 | 286 | 6.0 | 14.0 | 0.00 | 0.04 | 0.00 | 82 | 1011.2 |
| 20260904151601 | 53 | 320 | 7.0 | 14.0 | 0.00 | 0.04 | 0.00 | 82 | 1011.3 |
| 20260904151039 | 53 | 244 | 7.0 | 17.0 | 0.00 | 0.04 | 0.00 | 81 | 1011.4 |
| 20260904150539 | 53 | 280 | 9.0 | 17.0 | 0.00 | 0.04 | 0.00 | 81 | 1011.3 |
| 20260904150104 | 53 | 278 | 8.0 | 17.0 | 0.00 | 0.04 | 0.00 | 81 | 1011.4 |
| 20260904145539 | 53 | 286 | 7.0 | 17.0 | 0.00 | 0.04 | 0.00 | 81 | 1011.3 |
| 20260904145039 | 53 | 270 | 10.0 | 21.0 | 0.00 | 0.04 | 0.00 | 81 | 1011.1 |
| 20260904144613 | 53 | 283 | 9.0 | 21.0 | 0.00 | 0.04 | 0.00 | 80 | 1011.0 |
| 20260904144040 | 53 | 286 | 10.0 | 21.0 | 0.00 | 0.04 | 0.00 | 80 | 1011.4 |
| 20260904143539 | 53 | 301 | 9.0 | 16.0 | 0.00 | 0.04 | 0.00 | 80 | 1011.3 |
| 20260904143057 | 53 | 249 | 9.0 | 20.0 | 0.00 | 0.04 | 0.00 | 79 | 1011.3 |
| 20260904142539 | 53 | 246 | 10.0 | 20.0 | 0.00 | 0.04 | 0.00 | 79 | 1011.1 |
| 20260904142040 | 53 | 243 | 9.0 | 19.0 | 0.00 | 0.04 | 0.00 | 79 | 1011.1 |
| 20260904141606 | 53 | 242 | 9.0 | 19.0 | 0.00 | 0.04 | 0.00 | 80 | 1011.1 |
| 20260904141039 | 53 | 253 | 9.0 | 18.0 | 0.00 | 0.04 | 0.00 | 80 | 1011.0 |
| 20260904140538 | 53 | 259 | 10.0 | 18.0 | 0.00 | 0.04 | 0.00 | 81 | 1011.1 |
| 20260904140056 | 53 | 244 | 9.0 | 17.0 | 0.00 | 0.04 | 0.00 | 81 | 1011.0 |
| 20260904135539 | 53 | 265 | 7.0 | 20.0 | 0.00 | 0.04 | 0.00 | 80 | 1011.1 |
| 20260904135038 | 53 | 292 | 9.0 | 21.0 | 0.00 | 0.04 | 0.00 | 79 | 1011.2 |
| 20260904134552 | 54 | 258 | 11.0 | 21.0 | 0.00 | 0.04 | 0.00 | 78 | 1011.0 |
| 20260904134039 | 53 | 245 | 8.0 | 17.0 | 0.00 | 0.04 | 0.00 | 79 | 1011.1 |
| 20260904133541 | 54 | 257 | 10.0 | 20.0 | 0.00 | 0.04 | 0.00 | 78 | 1011.2 |
| 20260904133057 | 54 | 247 | 12.0 | 20.0 | 0.00 | 0.04 | 0.00 | 78 | 1011.1 |
| 20260904132539 | 54 | 283 | 12.0 | 16.0 | 0.00 | 0.04 | 0.00 | 78 | 1011.1 |
| 20260904132039 | 54 | 243 | 11.0 | 16.0 | 0.00 | 0.04 | 0.00 | 79 | 1011.3 |
| 20260904131606 | 53 | 257 | 9.0 | 15.0 | 0.00 | 0.04 | 0.00 | 80 | 1011.2 |
| 20260904131039 | 53 | 232 | 7.0 | 16.0 | 0.00 | 0.04 | 0.00 | 79 | 1011.1 |
| 20260904130539 | 54 | 259 | 8.0 | 19.0 | 0.00 | 0.04 | 0.00 | 78 | 1011.1 |
| 20260904130057 | 54 | 244 | 10.0 | 19.0 | 0.00 | 0.04 | 0.00 | 77 | 1011.1 |
| 20260904125539 | 53 | 259 | 7.0 | 19.0 | 0.00 | 0.04 | 0.00 | 78 | 1011.1 |
| 20260904125043 | 53 | 259 | 9.0 | 19.0 | 0.00 | 0.04 | 0.00 | 77 | 1011.1 |
| 20260904124603 | 53 | 249 | 6.0 | 17.0 | 0.00 | 0.04 | 0.00 | 78 | 1011.1 |
| 20260904124039 | 53 | 254 | 7.0 | 17.0 | 0.00 | 0.04 | 0.00 | 77 | 1011.1 |
| 20260904123538 | 53 | 259 | 7.0 | 16.0 | 0.00 | 0.04 | 0.00 | 77 | 1011.0 |
| 20260904123054 | 53 | 272 | 8.0 | 19.0 | 0.00 | 0.04 | 0.00 | 77 | 1010.9 |
| 20260904122539 | 54 | 296 | 8.0 | 19.0 | 0.00 | 0.04 | 0.00 | 77 | 1010.8 |
| 20260904122045 | 53 | 246 | 8.0 | 19.0 | 0.00 | 0.04 | 0.00 | 78 | 1010.6 |
| 20260904121559 | 54 | 247 | 8.0 | 21.0 | 0.00 | 0.04 | 0.00 | 77 | 1010.6 |
| 20260904121038 | 54 | 240 | 11.0 | 21.0 | 0.00 | 0.04 | 0.00 | 76 | 1010.6 |
| 20260904120538 | 54 | 259 | 8.0 | 20.0 | 0.00 | 0.04 | 0.00 | 76 | 1010.6 |
| 20260904120106 | 54 | 239 | 11.0 | 23.0 | 0.00 | 0.04 | 0.00 | 76 | 1010.6 |
| 20260904115538 | 54 | 277 | 9.0 | 23.0 | 0.00 | 0.04 | 0.04 | 77 | 1010.6 |
| 20260904115039 | 54 | 248 | 13.0 | 23.0 | 0.00 | 0.04 | 0.04 | 77 | 1010.4 |
| 20260904114557 | 53 | 279 | 9.0 | 16.0 | 0.00 | 0.04 | 0.04 | 79 | 1010.3 |
| 20260904114040 | 53 | 311 | 8.0 | 18.0 | 0.00 | 0.04 | 0.04 | 80 | 1010.3 |
| 20260904113541 | 53 | 250 | 8.0 | 20.0 | 0.00 | 0.04 | 0.04 | 80 | 1010.2 |
| 20260904113056 | 54 | 298 | 10.0 | 20.0 | 0.00 | 0.04 | 0.04 | 80 | 1010.2 |
| 20260904112540 | 53 | 315 | 11.0 | 20.0 | 0.00 | 0.04 | 0.04 | 80 | 1010.1 |
| 20260904112039 | 53 | 237 | 9.0 | 17.0 | 0.00 | 0.04 | 0.04 | 80 | 1009.9 |
| 20260904111600 | 53 | 284 | 10.0 | 19.0 | 0.00 | 0.04 | 0.04 | 79 | 1009.9 |
| 20260904111039 | 53 | 243 | 11.0 | 19.0 | 0.00 | 0.04 | 0.04 | 78 | 1010.0 |
| 20260904110539 | 53 | 252 | 10.0 | 19.0 | 0.00 | 0.04 | 0.04 | 77 | 1010.0 |
| 20260904110105 | 53 | 269 | 9.0 | 23.0 | 0.00 | 0.04 | 0.04 | 77 | 1009.9 |
| 20260904105539 | 54 | 257 | 11.0 | 23.0 | 0.00 | 0.04 | 0.04 | 76 | 1009.8 |
| 20260904105039 | 53 | 257 | 12.0 | 23.0 | 0.00 | 0.04 | 0.04 | 77 | 1009.9 |
| 20260904104557 | 53 | 252 | 10.0 | 17.0 | 0.00 | 0.04 | 0.04 | 79 | 1009.9 |
| 20260904104039 | 53 | 252 | 10.0 | 16.0 | 0.00 | 0.04 | 0.04 | 80 | 1009.9 |
| 20260904103541 | 53 | 254 | 9.0 | 20.0 | 0.00 | 0.04 | 0.04 | 80 | 1009.9 |
| 20260904103054 | 53 | 316 | 11.0 | 21.0 | 0.00 | 0.04 | 0.04 | 80 | 1009.9 |
| 20260904102539 | 53 | 296 | 9.0 | 21.0 | 0.00 | 0.04 | 0.04 | 80 | 1009.7 |
| 20260904102038 | 53 | 265 | 11.0 | 21.0 | 0.00 | 0.04 | 0.04 | 80 | 1009.7 |
| 20260904101600 | 53 | 249 | 11.0 | 21.0 | 0.00 | 0.04 | 0.04 | 79 | 1009.6 |
| 20260904101038 | 53 | 267 | 10.0 | 22.0 | 0.00 | 0.04 | 0.04 | 78 | 1009.3 |
| 20260904100539 | 53 | 284 | 10.0 | 22.0 | 0.00 | 0.04 | 0.04 | 77 | 1009.4 |
| 20260904100120 | 53 | 230 | 13.0 | 23.0 | 0.00 | 0.04 | 0.04 | 76 | 1009.3 |
| 20260904095541 | 53 | 248 | 11.0 | 23.0 | 0.00 | 0.04 | 0.04 | 77 | 1009.3 |
| 20260904095039 | 53 | 268 | 11.0 | 21.0 | 0.00 | 0.04 | 0.04 | 77 | 1009.3 |
| 20260904094557 | 53 | 254 | 9.0 | 22.0 | 0.00 | 0.04 | 0.04 | 78 | 1009.2 |
| 20260904094039 | 53 | 260 | 10.0 | 22.0 | 0.00 | 0.04 | 0.04 | 78 | 1009.3 |
| 20260904093539 | 53 | 266 | 10.0 | 22.0 | 0.00 | 0.04 | 0.04 | 78 | 1009.2 |
| 20260904093055 | 54 | 261 | 9.0 | 25.0 | 0.00 | 0.04 | 0.04 | 79 | 1009.0 |
| 20260904092539 | 54 | 271 | 11.0 | 25.0 | 0.00 | 0.04 | 0.04 | 79 | 1008.9 |
| 20260904092041 | 54 | 270 | 11.0 | 20.0 | 0.00 | 0.04 | 0.04 | 80 | 1008.8 |